Branson, MO

4:31 PM CDT on October 22, 2017 (GMT -0500)
Branson

Weather History for KBBG - November, 2012

Change the Weather History Date:

Saturday, November 24, 2012

  Actual Average (KHRO) Record (KHRO)
Temperature  
Mean Temperature 37 °F -  
Max Temperature 48 °F 53 °F 78 °F (1915)
Min Temperature 26 °F 35 °F 7 °F (1950)
Degree Days  
Heating Degree Days 28    
Moisture  
Dew Point 17 °F    
Average Humidity 48    
Maximum Humidity 65    
Minimum Humidity 27    
Precipitation  
Precipitation 0.00 in - - ()
Sea Level Pressure  
Sea Level Pressure 30.23 in    
Wind  
Wind Speed 5 mph (South)    
Max Wind Speed 12 mph    
Max Gust Speed -    
Visibility 10 miles    
Events      
Averages and records for this station are not official NWS values.
T = Trace of Precipitation, MM = Missing Value Source: NWS Daily Summary

Daily Weather History Graph

Daily Weather History Graph

Search for Another Location

Airport or City:

Trip Planner

Search our weather history database for the weather conditions in past years. The results will help you decide how hot, cold, wet, or windy it might be!

Date:

Astronomy

Nov. 24, 2012 Rise Set
Actual Time 6:59 AM CST 4:59 PM CST
Civil Twilight 6:31 AM CST 5:27 PM CST
Nautical Twilight 6:00 AM CST 5:58 PM CST
Astronomical Twilight 5:29 AM CST 6:29 PM CST
Moon 2:40 PM CST (11/24) 3:22 AM CST (11/24)
Length of Visible Light 10h 55m
Length of Day
9h 59m
Waxing Gibbous, 87% of the Moon is Illuminated
Nov 24
Waxing Gibbous
Nov 28
Full
Dec 6
Last Quarter
Dec 13
New
Dec 19
First Quarter

Hourly Weather History & Observations

Time (CST) Temp. Windchill Dew Point Humidity Pressure Visibility Wind Dir Wind Speed Gust Speed Precip Events Conditions
12:15 AM 32.0 °F 24.2 °F 15.8 °F 51% 30.39 in 10.0 mi NW 9.2 mph - N/A   Clear
12:35 AM 32.0 °F 24.8 °F 15.8 °F 51% 30.39 in 10.0 mi NW 8.1 mph - N/A   Clear
12:55 AM 30.2 °F 21.9 °F 15.8 °F 55% 30.39 in 10.0 mi NW 9.2 mph - N/A   Clear
1:35 AM 30.2 °F 24.3 °F 14.0 °F 51% 30.38 in 10.0 mi NW 5.8 mph - N/A   Clear
2:15 AM 28.4 °F - 14.0 °F 55% 30.37 in 10.0 mi Calm Calm - N/A   Clear
2:55 AM 28.4 °F - 14.0 °F 55% 30.37 in 10.0 mi Calm Calm - N/A   Clear
3:15 AM 28.4 °F - 14.0 °F 55% 30.38 in 10.0 mi Calm Calm - N/A   Clear
3:35 AM 28.4 °F 22.2 °F 14.0 °F 55% 30.37 in 10.0 mi WNW 5.8 mph - N/A   Clear
3:55 AM 28.4 °F - 14.0 °F 55% 30.37 in 10.0 mi Calm Calm - N/A   Clear
4:15 AM 28.4 °F 22.2 °F 14.0 °F 55% 30.37 in 10.0 mi NW 5.8 mph - N/A   Clear
4:35 AM 26.6 °F - 14.0 °F 59% 30.37 in 10.0 mi Calm Calm - N/A   Clear
4:55 AM 28.4 °F - 14.0 °F 55% 30.37 in 10.0 mi Calm Calm - N/A   Clear
5:15 AM 26.6 °F - 14.0 °F 59% 30.37 in 10.0 mi Calm Calm - N/A   Clear
5:35 AM 26.6 °F - 14.0 °F 59% 30.36 in 10.0 mi Calm Calm - N/A   Clear
6:50 AM 26.6 °F - 14.0 °F 59% 30.36 in 10.0 mi Calm Calm - N/A   Mostly Cloudy
7:45 AM 28.4 °F - 14.0 °F 55% 30.36 in 10.0 mi Calm Calm - N/A   Mostly Cloudy
8:45 AM 30.2 °F - 12.2 °F 47% 30.36 in 10.0 mi Calm Calm - N/A   Mostly Cloudy
9:45 AM 33.8 °F - 10.4 °F 38% 30.36 in 10.0 mi Calm Calm - N/A   Mostly Cloudy
11:52 AM 41.0 °F - 15.8 °F 36% 30.28 in 10.0 mi Calm Calm - N/A   Scattered Clouds
12:54 PM 44.6 °F 41.4 °F 14.0 °F 29% 30.25 in 10.0 mi SW 5.8 mph - N/A   Scattered Clouds
1:45 PM 46.4 °F - 15.8 °F 29% 30.22 in 10.0 mi Calm Calm - N/A   Mostly Cloudy
2:45 PM 48.2 °F - 15.8 °F 27% 30.18 in 10.0 mi Calm Calm - N/A   Mostly Cloudy
4:49 PM 44.6 °F 40.2 °F 19.4 °F 37% 30.13 in 10.0 mi ESE 8.1 mph - N/A   Scattered Clouds
5:47 PM 41.0 °F 34.3 °F 21.2 °F 45% 30.11 in 10.0 mi SE 11.5 mph - N/A   Scattered Clouds
6:51 PM 39.2 °F 34.2 °F 19.4 °F 45% 30.11 in 10.0 mi SE 6.9 mph - N/A   Scattered Clouds
7:50 PM 39.2 °F 34.2 °F 19.4 °F 45% 30.10 in 10.0 mi SSE 6.9 mph - N/A   Scattered Clouds
8:15 PM 39.2 °F 33.6 °F 17.6 °F 42% 30.08 in 10.0 mi SSE 8.1 mph - N/A   Clear
8:35 PM 39.2 °F 34.2 °F 17.6 °F 42% 30.08 in 10.0 mi SSE 6.9 mph - N/A   Clear
8:47 PM 39.2 °F 33.6 °F 17.6 °F 42% 30.07 in 10.0 mi SSE 8.1 mph - N/A   Partly Cloudy
8:55 PM 39.2 °F 33.6 °F 17.6 °F 42% 30.07 in 10.0 mi SSE 8.1 mph - N/A   Clear
9:15 PM 39.2 °F 33.6 °F 19.4 °F 45% 30.07 in 10.0 mi SSE 8.1 mph - N/A   Clear
9:35 PM 39.2 °F 33.6 °F 19.4 °F 45% 30.06 in 10.0 mi SSE 8.1 mph - N/A   Clear
9:55 PM 39.2 °F 35.0 °F 19.4 °F 45% 30.06 in 10.0 mi SSE 5.8 mph - N/A   Clear
10:15 PM 39.2 °F 34.2 °F 19.4 °F 45% 30.06 in 10.0 mi SSE 6.9 mph - N/A   Clear
10:35 PM 39.2 °F 35.0 °F 19.4 °F 45% 30.04 in 10.0 mi SSE 5.8 mph - N/A   Clear
10:55 PM 39.2 °F - 19.4 °F 45% 30.05 in 10.0 mi Calm Calm - N/A   Clear
11:15 PM 35.6 °F - 23.0 °F 60% 30.05 in 10.0 mi Calm Calm - N/A   Clear
11:35 PM 35.6 °F - 21.2 °F 56% 30.04 in 10.0 mi Calm Calm - N/A   Clear
11:55 PM 33.8 °F - 23.0 °F 65% 30.04 in 10.0 mi Calm Calm - N/A   Clear